Location: Fort Wayne
(41.1310°N, 85.1290°W)
Time: 14:41:13
(UTC-04:00)

Daily predictions for brighter satellites

Satellite Brightness Start Highest point End
(mag) Time Altitude Azimuth Time Altitude Azimuth Time Altitude Azimuth
SL-19 R/B 4.4 19:41:12 10° SSE 19:46:45 62° ENE 19:52:40 10° N
Helios 1A 4.3 19:47:59 10° ESE 19:51:12 22° ENE 19:54:26 10° NNE
Spot 2 Rocket 4.3 19:47:10 10° SE 19:51:30 30° ENE 19:55:51 10° N
ISS -1.7 19:49:23 10° S 19:51:48 19° SE 19:54:13 10° E
Cosmos 1544 4.4 19:53:51 10° SE 19:56:39 20° E 19:59:28 10° NE
Okean 3 Rocket 3.9 19:52:26 10° N 19:57:00 78° W 20:01:32 10° S
Timation 1 Rocket 4.4 19:52:34 10° NNW 19:58:35 85° ENE 20:04:33 10° SSE
SL-8 R/B 4.2 19:54:55 10° SSW 19:59:24 42° SE 20:03:55 10° ENE
Cosmos 2056 Rocket 4.2 19:54:42 10° NNW 20:00:04 62° WSW 20:05:24 10° S
SL-16 R/B 2.5 19:56:27 10° SSW 20:02:07 73° WNW 20:07:50 10° NNE
SAR-Lupe-4 3.5 19:59:40 10° SSE 20:03:13 69° ENE 20:06:47 10° N
Cosmos 1766 3.4 20:00:43 10° S 20:04:41 85° W 20:08:42 10° N
Resurs 01 Rocket 2.2 20:02:17 10° SE 20:06:20 36° ENE 20:10:25 10° N
Cosmos 1378 3.3 20:04:05 10° N 20:07:49 77° W 20:11:33 10° S
HJ-1C 4.1 20:07:01 10° SE 20:10:04 33° ENE 20:13:08 10° N
USA 215 3.6 20:08:49 10° ENE 20:15:00 44° SE 20:21:09 10° SSW
FENGYUN 3A 4.5 20:11:21 10° SE 20:15:57 30° ENE 20:20:35 10° N
COSMO-SKYMED 1 3.8 20:16:32 10° N 20:20:42 45° WNW 20:24:50 10° SW
Meteor 2-12 Rocket 4.5 20:14:45 10° S 20:20:45 58° E 20:26:47 10° NNE
Meteor 1-28 Rocket 3.1 20:18:57 10° NNE 20:22:42 90° ESE 20:26:24 10° SSW
FREGAT/IRIS 2.5 20:20:09 10° SSE 20:23:14 84° ENE 20:26:20 10° N
Nadezhda 4 Rocket 4.2 20:17:48 10° N 20:23:53 50° ENE 20:29:52 10° SSE
Helios 1B rocket 2.6 20:20:07 10° NNE 20:24:06 47° E 20:28:03 10° S
Abrixas 2.4 20:22:11 10° SW 20:25:10 66° SSE 20:26:59 21° ENE
H-2A R/B 3.9 20:28:07 20° E 20:29:26 24° ENE 20:32:37 10° NNE
GP-B 4.4 20:26:58 10° NE 20:30:16 20° E 20:30:36 20° E
Cosmos 1805 3.2 20:27:56 10° S 20:31:53 88° E 20:35:50 10° N
CZ-4B DEB 3.7 20:31:57 25° E 20:32:42 28° ENE 20:35:34 10° N
Cosmos 1092 Rocket 4.3 20:26:58 10° N 20:32:50 42° ENE 20:38:36 10° SSE
Cosmos 1346 3.0 20:30:45 10° N 20:33:41 58° ENE 20:36:07 14° SSE
GPS 2-04 Rocket1 3.7 20:32:34 10° SW 20:35:32 26° SSE 20:36:40 22° SE
Gbstr 26 Del rocket 3.7 20:32:48 10° SSW 20:36:53 39° SE 20:39:48 21° ENE
TELKOM 3 3.5 20:35:02 10° NW 20:37:42 44° NNE 20:38:02 40° NE
Cosmos 1943 Rocket 3.7 20:34:29 10° N 20:38:18 18° NE 20:39:37 17° ENE
Cosmos 1766 Rocket 4.0 20:34:49 10° NNW 20:39:08 64° W 20:43:25 10° S
Cosmos 1076 Rocket 4.5 20:34:58 10° NNW 20:39:10 51° W 20:43:22 10° S
Cosmos 1953 2.5 20:35:25 10° SSW 20:39:23 73° W 20:43:22 10° N
Meteor 1-29 2.9 20:38:20 10° NNE 20:41:51 63° ESE 20:45:17 10° S
Cosmos 2369 Rocket 2.7 20:37:10 10° N 20:42:29 40° ENE 20:45:20 24° ESE
Cosmos 1943 3.5 20:38:23 10° S 20:43:36 40° ESE 20:48:49 10° NE
Cosmos-2242 3.3 20:43:19 10° SSW 20:47:39 71° W 20:52:03 10° N
Cosmos 1634 Rocket 4.3 20:42:55 10° SSE 20:48:43 42° E 20:54:30 10° NNE
Cosmos 1603 3.9 20:44:01 10° SSW 20:49:45 79° WNW 20:55:33 10° NNE
Cosmos 2151 3.8 20:48:35 10° NNE 20:52:06 30° ENE 20:52:06 30° ENE
Cosmos 1733 3.3 20:50:42 10° SSE 20:54:26 48° E 20:58:10 10° NNE
OAO 3 Rocket 4.1 20:51:10 10° WSW 20:55:29 35° S 20:57:20 26° SSE
Cosmos 1470 2.6 20:52:31 10° S 20:56:22 65° E 21:00:13 10° NNE
Cosmos 839 Rocket 4.4 20:53:03 10° NNW 21:00:40 56° NE 21:03:47 31° ESE
Cosmos 1674 2.6 21:00:24 10° N 21:04:18 89° E 21:06:20 27° S
ASTEX 1 3.2 20:59:31 10° N 21:04:27 75° E 21:09:19 10° S
Cosmos 1500 Rocket 3.6 21:07:19 10° N 21:11:47 83° W 21:14:49 20° S
Cosmos 1842 Rocket 3.5 21:07:37 10° S 21:11:57 81° W 21:16:19 10° N
Cosmos 1331 Rocket 4.5 21:12:23 10° N 21:17:24 41° ENE 21:17:26 41° ENE
CENTAUR R/B 2.4 21:12:49 10° SSW 21:18:49 81° ESE 21:25:39 10° NE
ATLAS 5 CENTAUR R/B 3.9 21:16:50 10° W 21:21:00 27° NW 21:25:29 10° NNE
Meteor 1-16 Rocket 4.0 21:22:42 49° SE 21:23:47 60° E 21:29:01 10° NNE
ALOS 2.7 21:20:32 16° S 21:24:09 62° W 21:28:48 10° NNW
ISS -2.0 21:24:54 10° WSW 21:27:24 40° WNW 21:27:24 40° WNW
Meteor 1-11 4.2 21:26:12 10° N 21:31:59 66° ENE 21:32:39 61° ESE
Cosmos 1627 Rocket 4.3 21:29:04 10° N 21:35:17 83° E 21:37:44 40° SSE
Envisat 3.8 21:42:35 37° NNE 21:42:35 37° NNE 21:45:59 10° N
SL-8 R/B 4.2 21:37:13 10° W 21:41:54 54° NNW 21:42:21 52° N
Resurs 01 Rocket 4.1 21:39:34 10° SW 21:42:54 21° W 21:46:16 10° NW
USA 215 3.7 21:53:08 17° NE 21:58:05 57° NW 22:04:27 10° WSW
Cosmos 2279 Rocket 4.0 22:09:41 73° WSW 22:10:03 76° W 22:16:17 10° N
ERS-1 Rocket 4.0 22:15:36 42° NNW 22:15:36 42° NNW 22:18:56 10° NNW
Cosmos 1943 Rocket 2.9 22:17:03 10° NNW 22:21:09 49° NW 22:21:09 49° NW
Cosmos 2369 Rocket 3.7 22:21:30 10° NW 22:26:20 29° WSW 22:27:10 28° WSW
CZ-3A R/B 4.3 21:51:02 10° SSW 22:26:56 68° SE 22:27:52 65° ESE
CENTAUR R/B 4.5 23:05:12 10° W 23:10:22 25° NW 23:16:04 10° NNE
